Temperature
26 23 22 23 23 24 24 23 23 23 22 21 20 19 18 18 18 18 17 18 18 18 18 18 18 18 19 18 19 19 19 18 18 18 17 17 17 16 16 16 15 15 15 15
23 23 25 26 26 26 24 23 22 22 22 21 19 19 19 18 18 18 18 18 18 18 18 18 18 18 18 19 19 19 19 18 18 18 17 17 16 16 16 15 15 15 15 14
24 25 28 28 27 25 24 23 23 22 21 21 20 19 19 18 18 18 18 18 18 18 18 18 18 18 19 19 19 19 19 18 18 17 17 17 16 16 15 15 15 15 14 14
25 27 28 27 26 25 23 24 24 23 20 18 19 18 19 18 18 18 18 18 19 19 19 19 19 19 19 19 19 19 18 18 18 17 17 17 16 16 15 15 15 14 14 14
25 27 27 27 27 26 24 24 23 21 19 18 18 18 18 18 18 18 19 19 19 20 19 19 19 20 20 19 19 19 18 18 18 17 17 16 16 15 15 15 14 14 14 14
26 26 27 27 27 26 24 22 20 18 17 18 18 18 18 18 19 19 19 20 20 20 20 20 20 20 20 19 19 19 19 18 18 17 17 16 16 15 15 15 14 14 14 14
25 25 26 26 25 24 23 20 19 19 17 18 18 19 18 20 20 20 20 20 21 21 21 20 20 20 20 20 19 19 19 19 18 17 17 16 16 15 15 15 14 14 14 13
23 23 25 26 25 24 23 21 20 20 19 18 18 18 19 21 22 22 22 21 21 21 21 21 21 21 21 20 20 19 19 19 18 17 17 16 16 16 15 15 14 14 13 13
22 23 26 26 26 25 24 22 20 18 18 18 18 18 20 22 21 21 21 21 21 22 22 22 22 21 21 21 20 20 19 19 18 17 17 16 16 16 15 15 14 14 14 13
22 23 24 25 25 24 23 22 18 18 18 18 19 19 19 21 21 21 20 21 22 22 22 22 22 22 21 21 21 20 20 19 18 18 17 17 16 16 15 15 15 14 14 13
23 22 23 23 23 23 23 21 19 17 18 18 18 19 20 20 20 20 21 22 23 23 23 23 23 22 22 21 21 20 20 19 18 18 17 17 17 16 16 15 15 14 14 13
23 20 21 22 22 23 23 22 19 19 19 18 18 19 22 21 21 21 22 23 24 24 24 23 23 22 22 21 21 20 20 19 19 18 18 17 17 16 16 16 15 14 14 13
23 20 20 21 21 22 22 22 20 18 17 17 18 20 22 21 21 22 23 24 24 24 24 23 23 22 22 22 21 21 20 20 19 19 18 18 17 17 16 16 15 14 14 14
22 20 20 21 21 21 22 23 22 19 18 19 19 21 22 21 21 22 23 24 24 24 24 24 23 23 22 22 21 21 20 20 19 19 18 18 17 17 16 16 15 15 14 14
21 21 22 22 22 22 23 23 23 21 20 20 21 21 21 21 21 22 24 24 24 24 24 24 23 23 22 22 21 21 21 20 20 19 19 18 17 17 16 16 15 15 14 14
19 21 22 22 23 23 23 23 23 23 22 21 21 21 20 21 22 22 23 23 23 24 24 24 24 23 23 22 22 21 21 20 20 19 19 18 18 17 17 16 16 15 15 14
19 19 20 20 21 22 21 22 22 21 20 20 20 20 20 20 20 21 22 23 23 24 24 24 24 24 23 23 22 22 21 20 20 19 19 18 18 17 17 16 16 15 15 15
18 18 17 18 20 21 20 21 21 20 19 19 19 19 19 19 21 22 23 23 24 24 24 24 24 24 23 23 22 22 21 21 20 20 19 18 18 18 17 16 16 16 15 15
17 17 17 17 19 20 21 20 20 19 18 17 17 18 19 20 21 21 22 22 23 23 24 24 24 24 23 23 22 22 21 21 20 20 19 19 18 18 17 17 16 16 16 15
16 16 16 17 19 19 19 20 20 19 17 17 17 17 18 19 17 18 21 22 22 23 23 24 24 23 23 23 22 22 21 21 20 20 20 19 18 18 17 17 17 16 16 15
17 16 16 17 17 18 18 19 19 19 18 17 17 18 18 17 17 18 20 21 22 22 23 23 23 23 22 22 22 21 21 21 21 20 19 19 18 18 17 17 16 16 16 15
17 16 16 15 16 17 17 18 17 17 17 18 18 19 18 18 18 18 19 19 20 21 21 22 22 22 22 21 21 21 21 21 20 19 19 18 18 17 17 16 16 16 15 15
17 16 15 15 16 16 17 17 18 18 18 18 18 19 18 17 17 17 18 18 19 19 20 20 20 20 20 20 20 20 20 19 19 18 18 17 17 17 16 16 15 15 15 14
17 16 14 14 15 15 17 18 18 18 18 19 19 18 18 17 17 17 17 17 17 18 18 18 19 18 18 18 18 18 18 18 17 17 17 16 16 16 15 15 15 15 14 14
17 16 14 14 15 15 16 18 18 18 18 18 18 17 17 17 16 16 16 16 16 16 17 17 17 17 17 17 17 17 16 16 16 16 15 15 15 15 14 14 14 14 14 14
17 16 15 15 15 14 17 18 18 18 17 17 17 17 17 16 16 16 15 15 15 15 15 15 15 15 15 15 15 15 15 14 14 14 14 14 13 13 13 13 13 13 13 13
Wind_Speed
4 0 7 12 10 11 7 3 2 1 1 4 4 5 6 6 6 7 7 8 8 8 7 8 10 10 9 8 9 9 8 6 6 4 4 4 2 2 2 3 6 7 6 7
4 8 16 14 9 5 4 4 2 0 2 3 3 3 5 7 8 8 8 9 9 7 9 10 10 9 9 9 9 8 8 7 6 4 4 3 3 2 2 2 4 6 6 7
8 12 12 6 2 3 2 4 4 4 2 3 2 1 2 4 3 5 7 8 9 12 13 12 12 10 10 9 10 10 8 8 7 6 4 4 4 3 3 2 1 2 5 6
7 8 6 3 1 3 1 4 6 7 5 1 1 2 4 4 4 7 8 9 10 11 12 12 12 12 12 11 9 9 9 8 7 6 6 5 4 3 2 2 2 2 3 4
7 6 4 2 1 3 4 4 4 4 5 3 2 0 6 3 5 9 10 11 12 12 14 15 15 15 13 11 10 9 9 8 7 7 7 7 5 4 2 2 2 0 1 1
7 5 2 3 1 4 7 6 6 5 5 3 3 0 5 5 8 9 10 11 12 12 14 14 13 12 11 10 10 9 10 8 7 8 8 8 7 6 4 2 1 1 1 1
6 6 4 1 1 3 4 5 5 6 5 3 4 1 8 8 7 10 12 13 12 13 13 13 13 12 12 12 12 11 11 9 8 8 8 8 8 7 5 3 2 1 0 1
2 7 5 2 4 4 3 7 6 3 3 4 3 3 8 8 5 8 10 11 12 13 14 15 15 14 13 14 13 12 12 10 9 9 8 8 8 5 4 5 4 4 3 3
5 7 6 3 1 4 2 2 6 6 3 0 4 5 8 2 3 6 8 10 13 15 15 15 14 14 14 14 14 14 13 11 10 10 9 8 8 7 6 5 4 3 3 3
7 4 5 2 4 4 4 4 6 5 4 2 4 5 5 5 6 6 8 11 13 14 14 14 14 15 14 13 12 12 13 12 10 10 9 8 8 7 7 5 5 5 4 3
3 4 3 4 2 1 1 2 5 4 5 6 4 7 8 12 11 10 12 13 14 15 16 15 14 13 13 12 12 12 11 10 10 10 8 9 8 7 7 6 6 5 4 5
1 5 0 3 4 1 2 4 6 4 3 5 5 8 8 13 13 13 13 13 13 15 15 14 14 13 12 13 13 13 12 11 11 10 9 9 8 7 7 7 6 6 6 6
2 5 3 6 7 4 1 2 5 6 4 5 5 7 5 7 10 11 12 12 11 12 12 12 13 14 14 14 14 13 13 12 11 10 10 9 8 8 8 8 7 7 7 6
3 4 6 6 8 6 4 4 3 5 4 4 7 8 6 6 8 9 10 10 11 12 13 13 13 13 14 14 14 14 12 12 11 10 10 10 10 9 9 8 8 8 7 7
4 2 3 5 5 3 5 6 5 5 6 7 8 7 8 9 9 8 7 8 9 11 13 15 15 13 13 12 12 12 12 11 11 11 11 11 10 9 8 8 8 8 7 8
3 2 1 5 5 4 5 6 6 5 4 4 3 4 5 3 2 2 5 7 10 12 15 15 15 15 15 15 14 13 12 12 11 12 12 10 9 9 9 9 8 8 8 8
2 4 2 4 6 3 4 5 3 1 3 0 2 4 1 2 2 4 5 6 8 11 12 15 16 17 17 16 16 16 14 11 11 12 11 10 10 10 10 9 8 8 8 8
6 4 3 2 2 3 6 3 4 7 7 6 4 5 3 1 1 1 2 4 7 8 10 12 12 13 13 13 13 13 12 12 12 12 11 11 10 10 9 9 9 9 7 7
5 6 3 3 2 5 4 3 1 4 3 5 4 5 6 4 6 6 5 1 5 7 8 9 11 11 11 12 12 11 11 11 11 12 12 11 11 10 10 10 10 8 7 7
5 6 5 3 3 5 5 5 2 6 2 4 3 5 6 7 4 4 8 7 3 1 3 4 5 6 7 10 10 11 11 11 13 13 12 11 11 11 11 11 10 8 7 8
2 3 3 4 4 6 3 5 3 4 5 4 1 3 4 2 1 4 7 7 5 4 3 1 2 4 6 6 9 10 10 13 13 10 9 9 10 10 10 10 8 8 8 8
5 3 3 3 3 6 2 1 3 5 4 4 3 3 5 3 3 4 7 8 9 9 8 6 3 1 1 2 7 8 9 9 7 7 8 9 9 8 8 8 8 7 8 8
4 7 6 6 6 5 3 4 3 4 4 4 3 2 5 6 6 6 7 8 10 11 10 8 6 6 6 4 1 3 4 2 4 6 7 7 7 7 6 7 8 7 7 7
3 3 5 2 4 4 3 2 2 3 3 3 4 6 8 8 7 6 7 8 9 10 9 9 9 9 7 6 5 3 3 2 1 2 3 3 4 5 5 5 6 6 7 8
5 4 4 2 3 1 4 4 5 5 4 6 7 8 8 10 9 8 8 8 8 9 8 9 9 8 8 8 8 7 5 5 3 2 2 3 3 5 5 5 6 8 9 10
4 6 8 7 9 7 6 5 6 7 7 8 10 10 9 10 9 8 7 7 7 8 8 9 10 9 9 8 8 8 6 5 4 4 4 4 4 4 5 6 8 12 14 17
Wind_Direction
285 338 259 251 226 222 225 186 209 238 130 91 131 175 194 197 189 189 192 183 185 188 188 163 155 153 147 146 142 141 140 143 131 117 113 113 121 128 143 158 149 141 126 105
325 273 258 259 252 227 184 154 185 212 148 131 167 198 184 194 196 194 193 191 188 186 170 167 166 164 162 160 156 152 152 152 144 139 143 147 141 133 143 148 146 153 141 131
231 256 274 282 204 138 142 167 185 178 133 69 86 341 216 214 198 196 195 195 189 182 175 174 169 170 169 168 170 167 165 158 153 145 121 91 73 62 65 98 153 185 167 157
259 271 296 321 99 128 194 200 160 145 125 359 59 288 271 215 214 205 203 199 194 184 178 178 176 180 182 181 178 171 168 163 158 143 132 130 130 132 161 173 192 221 197 186
272 299 325 343 247 133 170 138 98 111 120 74 14 95 287 186 215 216 207 202 195 189 182 183 184 187 188 182 179 174 165 165 162 150 142 132 133 150 155 130 140 264 306 236
266 289 238 214 271 127 131 87 58 52 73 49 295 187 277 216 208 205 204 199 194 189 187 188 188 183 183 181 177 171 166 169 165 155 148 147 152 157 150 144 140 335 347 30
310 306 288 207 56 82 108 91 24 6 20 280 282 256 256 249 220 193 192 193 192 189 188 188 188 185 185 182 180 175 170 172 169 159 157 159 161 162 165 177 171 158 127 127
276 284 271 235 179 179 172 138 158 197 209 273 307 265 266 275 221 187 183 184 189 192 192 193 193 189 187 185 182 176 175 174 170 164 167 167 163 155 158 163 164 171 182 188
203 256 277 257 180 129 109 160 163 129 109 2 292 293 301 301 148 166 176 185 193 195 195 195 193 190 188 185 183 179 175 173 172 171 170 171 169 166 172 177 173 175 180 181
177 229 291 320 54 28 142 146 87 102 145 220 278 264 244 231 205 193 191 196 201 197 197 195 192 190 187 183 180 174 172 172 173 172 174 177 179 180 181 179 183 189 199 192
161 174 324 24 63 270 87 91 105 119 158 160 221 259 223 211 205 201 204 202 200 198 197 193 189 184 178 172 170 170 170 167 170 172 173 169 178 182 180 185 197 199 202 201
146 120 43 292 282 264 165 165 137 146 217 173 182 259 244 204 203 201 205 204 202 198 194 187 181 174 169 170 172 173 173 172 176 174 172 176 180 180 182 193 202 201 204 210
84 106 67 346 335 339 324 191 158 141 139 168 176 255 271 210 207 211 209 207 202 192 184 175 173 173 174 174 175 176 176 179 179 174 174 179 185 188 196 204 208 206 207 214
116 116 157 198 234 243 256 254 188 133 159 213 219 243 267 226 218 221 214 207 196 183 176 172 174 177 178 177 177 178 181 182 179 176 177 186 195 198 202 205 206 208 208 213
104 139 209 228 239 207 242 253 231 213 200 203 244 249 238 221 214 214 199 186 175 174 174 175 177 180 179 179 182 182 184 185 181 178 185 196 201 200 200 203 207 210 212 217
95 141 342 312 299 296 280 267 254 246 250 244 251 265 261 227 146 147 161 163 170 178 180 180 179 179 182 185 186 186 188 187 180 183 193 196 194 197 201 206 209 212 219 222
126 125 100 280 298 343 292 269 237 94 23 81 190 250 331 81 139 168 174 166 174 182 184 184 185 186 188 189 187 188 191 183 182 189 192 191 193 199 206 208 208 214 218 218
144 134 149 220 6 255 253 300 104 97 46 24 40 18 23 135 170 218 166 175 185 189 187 190 193 195 195 191 188 188 182 181 187 191 194 194 195 203 207 207 213 216 213 214
146 140 134 145 206 262 282 319 338 134 63 356 28 22 14 21 44 13 353 325 187 188 188 192 195 194 193 193 191 181 185 187 191 197 200 200 198 202 206 212 218 215 212 218
76 113 131 143 172 235 252 299 313 110 70 313 35 38 25 36 50 322 331 339 343 279 209 192 185 180 193 201 182 178 189 192 202 205 205 202 200 204 209 214 215 212 211 221
30 60 136 170 200 248 259 307 18 133 211 233 142 85 62 58 177 288 328 346 357 17 24 69 138 173 207 193 172 187 195 207 212 204 200 203 205 210 213 214 214 213 216 224
172 154 184 155 187 243 268 1 162 198 190 191 172 120 103 88 33 24 25 23 25 30 29 34 53 20 323 159 167 186 209 220 204 192 200 210 214 216 216 215 222 219 218 228
188 185 176 179 209 234 204 198 206 153 169 184 168 147 108 92 70 54 44 35 33 34 30 29 41 34 26 29 129 203 240 215 192 202 215 221 220 219 215 212 222 226 224 231
244 146 123 158 241 240 228 206 175 168 160 135 122 110 108 109 101 81 61 48 38 34 30 31 42 40 28 22 32 23 16 52 138 212 234 238 234 239 235 228 226 230 236 239
228 147 130 166 223 247 271 216 175 152 121 100 88 90 103 100 87 75 61 48 40 37 34 39 42 38 27 27 29 25 36 54 46 7 328 304 280 265 261 256 247 245 244 242
219 176 170 197 195 179 205 189 148 126 118 111 100 88 81 87 85 75 63 54 49 43 40 42 42 39 30 31 30 23 28 46 45 12 343 319 301 290 282 279 281 265 257 259
Height
1511 1517 1520 1512 1509 1510 1511 1517 1521 1516 1512 1515 1519 1521 1522 1522 1523 1524 1526 1526 1526 1528 1532 1535 1537 1540 1542 1544 1546 1547 1549 1551 1552 1553 1553 1554 1554 1554 1554 1553 1553 1552 1551 1550
1516 1517 1504 1499 1500 1503 1508 1517 1519 1517 1513 1515 1520 1521 1520 1521 1522 1522 1523 1524 1526 1529 1531 1534 1536 1538 1540 1543 1545 1546 1548 1550 1551 1552 1553 1553 1553 1553 1553 1552 1551 1551 1550 1549
1516 1506 1495 1495 1499 1505 1509 1514 1515 1517 1516 1516 1521 1526 1523 1520 1520 1520 1521 1523 1524 1526 1528 1531 1534 1537 1539 1541 1543 1545 1547 1549 1550 1550 1551 1552 1552 1551 1551 1551 1550 1550 1549 1548
1506 1497 1494 1496 1500 1502 1514 1505 1506 1512 1522 1531 1527 1539 1524 1520 1520 1519 1519 1521 1522 1525 1527 1529 1532 1535 1537 1539 1541 1544 1546 1547 1548 1549 1549 1550 1550 1550 1549 1549 1549 1548 1548 1547
1505 1497 1496 1498 1497 1498 1505 1503 1507 1514 1524 1533 1531 1537 1530 1520 1521 1517 1516 1517 1519 1522 1524 1527 1529 1532 1535 1537 1540 1542 1544 1545 1546 1547 1547 1547 1547 1548 1547 1547 1547 1547 1546 1546
1497 1493 1493 1492 1491 1493 1499 1508 1516 1523 1531 1545 1537 1537 1531 1520 1514 1512 1512 1514 1516 1519 1522 1525 1528 1531 1534 1536 1538 1540 1541 1543 1544 1545 1545 1545 1545 1545 1545 1545 1545 1544 1544 1544
1504 1496 1490 1488 1493 1497 1501 1519 1538 1541 1550 1548 1532 1531 1526 1505 1502 1504 1507 1510 1513 1516 1519 1523 1526 1528 1531 1533 1535 1537 1539 1540 1542 1543 1543 1543 1543 1542 1542 1542 1542 1542 1542 1542
1517 1514 1494 1488 1492 1499 1502 1513 1536 1547 1552 1546 1532 1533 1516 1499 1497 1499 1502 1506 1511 1514 1516 1519 1522 1525 1527 1530 1532 1534 1536 1538 1539 1540 1540 1541 1540 1540 1540 1540 1540 1540 1540 1540
1515 1511 1489 1486 1486 1490 1501 1509 1512 1531 1541 1547 1537 1526 1509 1497 1498 1499 1502 1505 1507 1510 1512 1515 1518 1521 1524 1526 1528 1531 1533 1535 1537 1537 1538 1538 1538 1538 1538 1538 1538 1538 1538 1538
1501 1508 1494 1488 1488 1491 1495 1502 1518 1532 1547 1550 1540 1532 1522 1504 1502 1499 1500 1501 1503 1506 1509 1512 1515 1518 1520 1523 1526 1529 1531 1532 1534 1534 1535 1535 1535 1535 1535 1535 1535 1535 1536 1536
1493 1505 1502 1496 1498 1500 1500 1505 1512 1526 1532 1545 1547 1532 1499 1497 1495 1496 1495 1496 1499 1502 1504 1508 1511 1514 1517 1520 1523 1525 1528 1529 1531 1531 1532 1532 1533 1533 1533 1533 1533 1533 1533 1533
1490 1504 1512 1503 1495 1492 1494 1499 1508 1525 1528 1530 1535 1523 1483 1484 1485 1488 1489 1491 1494 1497 1500 1503 1507 1511 1514 1517 1520 1522 1524 1526 1527 1528 1529 1529 1530 1530 1530 1530 1530 1530 1530 1530
1490 1505 1520 1518 1511 1499 1497 1496 1501 1511 1521 1528 1531 1515 1479 1480 1481 1483 1484 1486 1490 1493 1497 1500 1504 1507 1510 1513 1516 1518 1521 1522 1524 1525 1526 1526 1527 1527 1527 1527 1527 1527 1527 1527
1486 1500 1513 1520 1514 1502 1499 1494 1495 1505 1519 1519 1512 1501 1485 1481 1480 1480 1481 1483 1486 1489 1492 1496 1500 1503 1506 1509 1512 1514 1517 1519 1520 1521 1522 1523 1523 1524 1524 1524 1524 1524 1524 1523
1485 1498 1496 1496 1492 1492 1492 1490 1489 1495 1499 1505 1499 1492 1484 1479 1478 1478 1479 1481 1483 1486 1489 1492 1496 1499 1503 1506 1508 1511 1513 1515 1516 1517 1518 1519 1520 1520 1521 1521 1521 1521 1520 1520
1486 1494 1493 1494 1488 1489 1490 1486 1485 1487 1489 1490 1488 1487 1477 1475 1476 1477 1478 1479 1481 1483 1486 1489 1493 1496 1498 1501 1504 1506 1509 1510 1512 1513 1514 1515 1516 1516 1517 1517 1517 1517 1516 1516
1489 1494 1500 1504 1493 1491 1499 1489 1486 1488 1489 1488 1492 1487 1477 1477 1477 1477 1478 1478 1480 1481 1483 1486 1489 1491 1494 1497 1499 1502 1504 1506 1507 1508 1510 1511 1512 1512 1513 1513 1513 1512 1512 1512
1488 1495 1502 1505 1502 1509 1497 1482 1481 1487 1491 1487 1485 1482 1480 1478 1477 1477 1477 1478 1479 1481 1482 1484 1486 1488 1491 1493 1495 1498 1500 1501 1502 1504 1505 1506 1507 1507 1508 1508 1508 1508 1507 1507
1480 1491 1502 1509 1509 1502 1490 1483 1483 1487 1494 1489 1486 1483 1481 1478 1477 1479 1480 1480 1479 1480 1481 1482 1483 1485 1487 1489 1491 1493 1495 1496 1498 1499 1500 1501 1502 1503 1503 1503 1503 1503 1503 1502
1482 1486 1499 1506 1508 1508 1493 1482 1479 1484 1496 1488 1485 1483 1482 1481 1487 1487 1482 1481 1480 1480 1480 1480 1481 1482 1484 1486 1488 1489 1490 1491 1492 1493 1495 1496 1497 1497 1497 1498 1498 1498 1498 1497
1491 1494 1499 1503 1505 1497 1485 1481 1480 1495 1494 1486 1483 1483 1483 1485 1488 1487 1483 1481 1480 1480 1479 1479 1479 1480 1481 1482 1483 1484 1485 1486 1487 1489 1490 1491 1491 1492 1492 1493 1493 1492 1492 1491
1491 1497 1500 1502 1506 1500 1481 1481 1484 1485 1482 1482 1481 1481 1482 1485 1486 1485 1482 1480 1479 1479 1478 1478 1479 1479 1479 1479 1480 1480 1481 1482 1484 1485 1485 1486 1486 1487 1487 1487 1487 1487 1486 1485
1483 1483 1486 1490 1491 1481 1478 1477 1478 1479 1480 1480 1480 1481 1482 1484 1486 1485 1484 1482 1481 1480 1479 1479 1478 1478 1478 1478 1478 1478 1478 1479 1480 1481 1481 1482 1482 1482 1482 1482 1481 1480 1479 1478
1476 1475 1480 1484 1481 1477 1476 1477 1478 1479 1480 1480 1481 1482 1483 1485 1486 1486 1484 1483 1482 1481 1481 1480 1478 1477 1477 1477 1477 1476 1477 1477 1477 1477 1477 1477 1477 1477 1476 1475 1474 1474 1472 1471
1471 1473 1479 1481 1479 1478 1477 1476 1478 1480 1481 1482 1483 1484 1485 1485 1486 1486 1485 1485 1484 1483 1482 1481 1479 1478 1477 1476 1476 1475 1475 1474 1474 1474 1474 1473 1472 1471 1470 1469 1468 1466 1465 1464
1465 1467 1472 1474 1472 1474 1476 1477 1480 1481 1483 1483 1484 1485 1486 1487 1487 1487 1487 1487 1486 1485 1484 1482 1481 1479 1478 1477 1475 1474 1473 1473 1472 1471 1470 1469 1468 1466 1464 1463 1461 1459 1457 1455